STARLINK-5912 (56020 NORAD) Tracking and Keplerian Element Data

This shows tracking and keplerian element data for the satellite.

Feedback or suggestion? Click here.




ElementValue
Catalog56020
NameSTARLINK-5912
Epoch Orbit717
Epoch Day127.00001157
Epoch Year2023
RAAN293.1953
Inclination42.9992
Eccentricity0.0001428
Argument of Perigee273.531
Mean Anonmoly308.7169
Mean Motion15.54946861
Decay Rate-0.00925521
L11 56020U 23042AL 23127.00001157 -.00925521 00000+0 -14859-1 0 9996
L22 56020 42.9992 293.1953 0001428 273.5310 308.7169 15.54946861 7176



Live tracking and technical data element details for STARLINK-5912 (NORAD 56020). STARLINK-5912 can be tracked NOW for your location showing map with azimuth and elevation plus other details from your city location.







IsCatalogInMostPopularTable: catalog: 56020, numindb: 1
Update: records affected: 1



GetName: 56020 STARLINK-5912

Hit Count: updated at: Sat, 03 Jun 2023 17:22:00 GMT